Location: Table Mountain
(47.2500°N, 120.5778°W)
Time: 01:19:13
(UTC-07:00)

Envisat - Pass Details

Date: 07 October 2017
Orbit: 764 x 766 km, 98.2° (Epoch: 20 October)

Event Time Altitude Azimuth Distance (km) Brightness Sun altitude
Exits shadow 21:38:49 27° 238° (WSW) 1,438 4.6 -32.0°
Maximum altitude 21:40:06 31° 265° (W) 1,334 4.6 -32.2°
Drops below altitude 10° 21:44:35 10° 327° (NNW) 2,309 6.2 -32.8°
Sets 21:47:10 0° 338° (NNW) 3,240 6.9 -33.2°
